Wind_Speed
36 36 36 37 38 39 38 36 34 33 33 32 32 31 31 32 32 32 30 29 28 28 27 26 25 25 25 24 24 25 25 25 24 23 22 20 18 16 14 13 12 11 10 9 9 8 7 7 7
37 37 37 38 39 39 39 37 36 35 35 35 35 34 34 34 34 34 33 31 31 30 30 29 28 27 26 26 25 26 26 26 26 25 24 23 21 19 17 15 14 13 12 11 10 10 9 8 8
37 37 38 39 40 40 39 38 38 37 37 37 37 37 37 36 36 36 35 34 33 33 32 31 31 30 29 28 27 27 27 27 27 27 26 25 24 22 20 18 17 16 14 13 12 11 11 10 10
38 38 39 40 40 39 40 40 39 39 39 39 39 40 39 38 38 38 37 37 36 36 35 34 34 33 32 31 30 29 29 29 28 28 28 27 27 25 23 21 19 18 17 16 14 13 12 12 11
40 40 40 40 40 40 41 42 41 41 41 41 41 42 41 41 40 40 39 39 38 38 38 37 36 36 35 33 32 32 31 30 30 29 29 29 28 28 26 24 22 20 19 18 16 15 14 14 13
41 41 42 41 41 41 42 44 44 44 44 43 44 44 44 43 43 43 42 42 41 41 40 39 39 38 37 36 35 34 33 33 32 31 30 30 30 29 29 27 25 23 22 20 19 18 16 15 15
41 41 42 42 42 43 43 45 45 46 46 46 46 47 46 46 46 45 45 44 44 44 43 42 42 41 40 39 38 37 36 35 34 33 32 31 31 30 30 29 27 26 24 23 21 20 19 18 17
40 40 41 41 42 43 44 45 46 47 47 48 49 49 48 48 48 48 47 47 47 47 46 45 45 44 43 42 41 40 38 37 36 35 34 33 32 32 32 31 30 28 26 25 24 23 21 20 19
39 40 40 40 41 42 44 45 46 47 48 48 49 50 51 51 51 51 50 50 50 49 49 48 48 47 46 45 44 43 41 40 39 37 36 36 34 33 33 32 31 30 28 27 26 25 24 22 21
39 39 39 40 41 41 42 45 46 47 48 48 50 51 52 53 53 53 53 53 52 52 52 52 52 51 50 48 47 46 43 42 41 40 38 37 37 36 35 33 32 31 31 29 28 28 26 25 24
38 38 39 39 40 41 41 42 44 46 46 48 49 51 52 53 53 54 54 54 54 55 55 56 55 54 53 52 50 49 47 45 43 42 41 40 39 38 37 35 34 33 32 31 30 29 28 27 26
36 37 37 37 38 39 40 41 42 43 44 46 48 49 50 52 53 53 54 54 55 55 57 58 58 58 56 55 53 52 50 48 46 45 43 42 41 40 40 38 36 35 34 33 32 31 30 30 28
34 34 34 35 36 37 38 38 39 39 41 43 45 47 48 51 52 53 53 54 55 55 57 57 60 60 59 58 56 55 53 51 49 48 46 45 44 43 42 41 39 38 36 34 33 33 32 32 31
31 32 33 34 35 35 35 36 37 38 40 41 43 45 46 48 51 51 52 53 54 55 57 58 59 60 60 60 59 57 55 54 53 51 49 48 47 45 44 43 42 40 39 37 35 34 34 33 33
30 31 32 33 33 33 33 33 35 36 38 39 41 43 44 46 48 49 50 52 54 55 56 57 58 60 61 61 61 60 58 56 55 54 52 50 49 48 46 45 44 43 41 40 38 37 36 35 34
29 30 30 30 31 31 31 31 32 34 36 37 39 40 42 43 45 46 47 49 52 53 55 56 57 59 60 62 62 62 61 59 58 56 54 52 51 50 49 47 46 45 44 42 40 39 37 36 35
27 27 28 28 28 29 29 29 30 31 32 33 35 37 39 40 41 42 43 45 48 50 52 54 56 57 60 62 63 63 62 61 60 58 57 54 54 52 51 49 48 48 46 44 41 40 39 38 37
23 24 25 25 25 26 27 26 27 28 29 30 31 32 33 34 36 37 39 40 43 47 49 51 54 55 57 59 62 62 62 61 61 59 59 57 56 55 54 52 50 49 47 45 44 43 42 41 40
19 20 21 21 22 22 23 23 24 26 26 27 27 28 29 29 31 33 35 38 40 42 44 47 50 53 55 57 59 60 61 61 61 60 59 58 56 56 55 54 52 50 49 46 45 45 44 42 42
16 16 16 17 18 18 18 18 20 21 22 23 24 25 26 27 28 31 32 33 35 37 39 42 46 49 52 55 56 57 59 60 59 58 58 57 56 56 55 54 54 52 51 49 47 47 45 44 43
13 13 13 13 14 15 15 16 17 18 19 20 21 22 24 25 27 29 30 31 33 34 36 37 39 43 46 50 53 55 57 58 59 58 58 57 56 56 55 53 53 54 53 51 49 49 47 46 45
10 10 10 10 11 12 13 14 14 14 15 17 19 20 21 23 24 26 27 28 29 30 31 33 35 38 41 47 50 51 53 54 55 55 56 55 55 55 55 55 54 53 53 53 51 50 48 47 46
7 7 7 8 9 10 11 12 11 12 12 13 16 18 18 19 20 23 23 23 24 25 27 30 32 35 37 40 43 45 48 51 51 52 53 54 54 55 55 55 53 52 53 53 51 51 51 49 47
6 6 6 7 8 8 8 9 9 10 11 11 13 14 15 16 16 17 17 18 19 21 23 25 27 29 32 35 39 41 43 46 48 48 48 50 53 53 53 54 53 52 53 54 53 52 52 51 49
4 4 4 4 5 5 5 6 8 9 10 10 10 10 11 11 11 12 12 12 13 14 16 18 21 24 27 30 34 37 40 42 44 44 43 45 48 50 50 51 52 53 53 55 55 54 53 52 52
3 3 3 3 2 3 4 6 7 8 9 10 10 9 8 9 8 8 8 7 8 10 12 14 17 20 22 25 28 31 34 36 38 39 39 41 43 46 47 49 51 52 53 54 55 56 54 54 54
2 1 1 0 1 2 4 6 6 6 8 9 8 8 7 7 7 7 7 6 5 5 7 10 13 15 17 20 23 26 28 30 32 34 35 37 40 42 44 45 47 50 52 53 54 54 54 54 54
2 2 2 2 2 3 4 5 5 5 7 7 8 8 7 7 7 6 6 6 3 3 3 5 8 11 14 16 20 23 25 26 28 30 32 34 36 39 41 43 44 47 50 51 53 53 53 53 54
3 2 2 2 3 4 5 6 6 6 7 8 8 7 8 8 8 8 7 7 4 2 1 2 6 9 11 13 16 20 22 23 24 25 27 29 33 37 39 41 43 44 47 49 50 52 53 53 53
2 2 2 2 3 4 5 6 7 7 7 8 8 8 8 9 9 9 8 8 7 4 1 1 2 4 6 9 11 14 18 20 21 22 24 26 29 33 36 39 40 41 43 45 47 50 51 52 52
Wind_Direction
249 248 248 247 247 248 249 250 251 249 248 248 247 246 245 246 247 248 250 250 250 251 251 251 251 252 251 250 249 249 249 248 247 247 246 247 248 249 248 248 245 245 244 243 247 250 252 254 253
249 248 248 248 248 249 250 250 251 250 249 249 248 248 247 247 248 249 249 249 248 249 250 250 250 251 250 250 249 248 248 248 247 247 246 246 247 249 249 249 248 247 247 247 248 251 253 254 254
249 248 248 248 249 250 251 250 251 251 250 250 249 248 248 248 248 249 249 249 248 248 248 249 249 249 249 249 249 248 247 246 246 246 246 246 246 247 248 249 249 249 249 248 249 250 252 253 255
249 249 249 249 250 251 252 252 251 252 251 251 250 250 249 249 249 249 249 248 248 248 248 248 248 248 248 249 248 248 248 247 246 246 245 245 246 245 247 248 249 250 250 250 250 250 251 252 255
249 249 249 250 251 251 252 253 253 253 253 252 252 251 251 250 249 249 248 248 248 247 247 248 248 248 248 248 248 247 247 246 246 245 245 245 245 245 245 247 248 250 250 249 250 251 252 253 256
249 249 250 251 252 252 253 254 254 254 254 254 253 253 252 251 250 249 248 248 248 247 246 247 247 248 248 247 246 245 246 246 246 245 245 244 244 245 245 246 248 249 249 249 250 251 253 254 256
249 249 251 251 252 253 254 255 255 255 255 255 255 254 253 252 251 250 249 248 248 247 247 247 247 247 247 247 245 243 243 245 245 245 245 245 244 245 245 245 246 248 248 249 249 250 252 254 255
249 250 251 252 253 254 255 255 256 256 256 256 256 256 254 253 252 251 250 249 248 247 247 247 247 247 247 246 244 242 242 243 244 244 245 245 245 245 245 245 246 246 248 249 249 250 251 253 255
250 250 252 252 254 254 255 255 256 256 257 257 257 256 255 254 253 252 251 249 248 247 247 246 246 246 246 245 244 242 241 242 242 243 244 244 245 245 244 244 245 246 247 249 249 249 250 252 254
250 251 253 254 255 255 255 256 256 257 257 258 257 257 256 255 254 252 251 250 249 248 246 246 246 246 245 244 243 241 242 241 242 242 243 245 245 246 244 244 245 246 246 247 248 250 251 252 254
250 253 254 255 256 256 256 256 257 258 259 259 259 258 257 256 255 253 252 250 249 248 247 246 246 245 244 243 242 241 242 241 241 242 242 244 245 245 244 244 245 246 246 247 248 250 251 252 253
251 253 255 256 256 256 257 258 258 259 260 260 259 259 258 257 256 254 253 251 250 249 249 246 245 244 243 241 241 241 241 241 242 242 242 242 244 245 243 243 244 245 246 247 247 249 251 252 253
251 253 254 255 255 256 258 259 259 260 260 260 260 260 259 258 256 255 254 252 251 250 249 247 245 243 242 240 240 240 241 240 241 242 242 242 243 245 244 243 244 244 246 247 248 248 250 252 253
249 251 253 255 256 257 259 259 260 260 261 261 261 261 261 259 257 256 254 252 251 251 249 248 246 243 241 239 239 239 240 240 240 241 241 242 243 243 244 245 244 244 245 246 248 248 248 251 253
250 251 253 255 255 257 258 259 261 262 263 263 263 263 262 261 259 257 254 252 251 251 249 248 246 243 241 239 238 238 239 238 239 240 241 242 241 242 243 244 243 244 245 246 247 249 250 251 253
251 252 253 255 255 257 259 260 263 265 265 265 265 265 265 264 262 259 256 253 251 251 249 248 246 244 242 240 238 238 238 237 237 238 239 241 241 241 241 243 243 243 244 245 246 248 250 252 253
253 253 254 255 257 258 260 263 265 268 268 267 268 268 268 267 264 260 258 256 253 252 250 249 248 245 242 239 237 237 237 237 237 237 238 239 240 240 241 241 242 242 242 243 245 248 249 250 253
252 254 255 257 257 260 261 263 267 269 270 270 271 270 271 268 263 261 259 258 256 253 251 249 247 245 241 238 235 235 236 236 236 237 237 237 238 239 241 241 241 241 241 242 243 247 248 249 252
252 254 255 255 257 259 261 264 267 270 271 271 273 273 272 268 264 262 261 261 258 255 253 250 245 242 240 237 234 234 234 235 235 235 237 237 238 239 240 240 240 240 239 240 241 245 248 249 251
251 252 253 255 257 259 260 266 270 271 271 272 273 275 274 270 267 266 265 263 259 255 254 250 244 241 239 236 234 233 233 234 234 235 236 236 238 238 239 240 239 238 239 240 241 243 246 249 251
249 249 249 252 254 260 263 268 271 270 271 273 274 276 277 275 271 269 267 265 260 256 253 247 243 241 238 235 234 233 233 233 234 235 236 237 238 238 239 239 239 238 239 240 242 243 246 249 251
240 240 247 252 253 262 268 273 272 271 271 273 277 279 280 278 275 272 269 267 260 253 250 246 243 240 237 235 233 232 232 232 233 234 235 236 238 239 240 240 239 238 238 239 241 243 246 249 251
229 235 247 254 259 271 274 275 277 280 278 277 282 287 287 282 278 274 270 264 259 253 248 244 242 239 237 233 231 230 230 230 232 233 235 237 237 239 240 240 239 239 239 239 240 242 245 248 251
229 241 250 256 264 276 279 282 288 293 292 289 290 295 294 288 283 280 275 266 260 253 246 244 242 237 234 232 231 230 230 229 230 232 234 235 236 237 238 238 239 240 240 240 240 243 245 247 251
226 239 242 253 265 283 286 298 302 305 306 306 306 303 303 297 289 289 284 273 262 253 246 243 238 234 233 232 230 229 228 228 228 230 232 235 237 237 238 238 239 241 242 242 242 244 245 249 251
213 235 232 253 273 305 303 316 313 316 320 321 326 326 322 320 306 311 305 294 272 255 242 240 237 233 230 229 226 225 226 227 227 228 232 235 237 238 239 239 240 241 242 243 244 245 246 250 252
167 181 194 219 328 331 332 334 323 329 333 336 344 348 343 341 332 331 335 326 292 252 239 237 236 231 228 227 223 222 220 223 225 228 233 236 239 240 240 241 242 243 243 243 245 246 249 251 253
151 139 113 70 20 358 2 358 355 359 360 357 1 2 359 352 349 347 349 344 323 259 242 228 219 222 226 224 220 219 222 224 224 226 231 236 239 241 241 243 245 247 247 249 250 250 251 252 255
133 112 77 44 15 9 17 21 18 18 20 24 26 25 21 15 10 5 2 5 355 332 256 209 216 219 218 216 214 215 217 221 222 228 235 239 241 242 244 246 248 249 250 252 252 253 253 255 257
123 81 48 24 15 14 16 21 23 28 32 37 41 40 38 30 28 27 27 29 34 37 53 201 213 215 211 208 210 217 223 229 231 235 241 245 247 248 247 249 251 252 253 255 255 254 255 256 259
Height
5814 5816 5818 5820 5822 5823 5825 5829 5832 5835 5836 5838 5840 5842 5844 5846 5848 5851 5852 5853 5854 5855 5857 5859 5860 5862 5863 5864 5866 5867 5868 5870 5871 5872 5873 5875 5876 5876 5877 5877 5877 5877 5877 5878 5878 5878 5878 5878 5878
5807 5809 5812 5813 5814 5816 5819 5822 5825 5827 5829 5831 5833 5835 5837 5839 5841 5843 5845 5847 5848 5850 5852 5853 5855 5857 5859 5860 5862 5863 5864 5866 5867 5869 5870 5871 5873 5873 5874 5875 5875 5875 5875 5876 5876 5876 5876 5877 5877
5799 5801 5804 5806 5807 5811 5813 5815 5817 5819 5822 5824 5826 5828 5830 5833 5835 5836 5838 5840 5842 5844 5846 5848 5850 5852 5854 5855 5857 5858 5860 5861 5863 5865 5866 5868 5869 5870 5871 5872 5873 5873 5873 5873 5874 5874 5874 5875 5875
5792 5794 5797 5799 5801 5804 5805 5807 5809 5811 5814 5816 5818 5820 5823 5826 5828 5829 5831 5833 5836 5838 5840 5842 5844 5846 5848 5850 5852 5854 5855 5857 5858 5860 5862 5863 5865 5866 5868 5869 5870 5870 5871 5871 5871 5872 5872 5872 5873
5783 5786 5789 5791 5793 5795 5797 5798 5801 5803 5805 5808 5810 5812 5814 5817 5819 5821 5824 5826 5828 5831 5833 5835 5837 5840 5842 5844 5846 5848 5850 5852 5853 5855 5857 5859 5860 5862 5864 5865 5866 5867 5868 5868 5869 5869 5870 5870 5870
5776 5778 5781 5783 5785 5787 5788 5790 5792 5794 5796 5799 5801 5803 5805 5808 5810 5813 5815 5818 5820 5823 5826 5828 5830 5833 5835 5837 5840 5842 5844 5846 5848 5850 5852 5853 5855 5857 5859 5861 5862 5863 5864 5865 5866 5866 5867 5867 5868
5767 5770 5772 5775 5776 5778 5780 5781 5783 5785 5787 5789 5791 5793 5796 5798 5800 5803 5806 5809 5812 5815 5817 5820 5823 5825 5828 5830 5832 5835 5838 5840 5842 5844 5846 5848 5850 5852 5854 5856 5857 5859 5860 5861 5862 5863 5863 5864 5864
5758 5761 5763 5766 5768 5769 5771 5772 5774 5776 5778 5779 5781 5783 5786 5789 5791 5793 5797 5800 5803 5806 5808 5811 5814 5817 5819 5822 5824 5828 5831 5833 5836 5838 5841 5843 5845 5847 5848 5850 5852 5854 5855 5856 5857 5858 5859 5860 5861
5749 5753 5755 5757 5759 5760 5762 5763 5765 5766 5768 5769 5771 5773 5775 5778 5780 5783 5786 5789 5793 5796 5799 5802 5805 5808 5810 5813 5816 5820 5823 5826 5829 5831 5834 5836 5839 5841 5843 5845 5847 5849 5850 5851 5853 5854 5855 5856 5856
5741 5744 5746 5748 5750 5751 5752 5754 5755 5757 5758 5759 5760 5761 5763 5766 5769 5772 5775 5778 5781 5785 5788 5791 5795 5798 5801 5804 5807 5811 5815 5818 5821 5824 5827 5830 5832 5835 5837 5839 5841 5843 5844 5846 5847 5849 5850 5851 5852
5732 5735 5737 5738 5740 5741 5743 5744 5745 5747 5749 5749 5749 5751 5752 5755 5758 5760 5763 5766 5769 5773 5776 5780 5783 5787 5791 5794 5798 5802 5806 5810 5813 5817 5820 5822 5825 5828 5830 5833 5835 5837 5838 5840 5842 5843 5844 5846 5847
5724 5726 5728 5729 5730 5732 5733 5735 5736 5737 5738 5737 5738 5740 5741 5743 5745 5748 5750 5754 5757 5760 5764 5767 5771 5775 5779 5783 5788 5792 5796 5801 5805 5808 5812 5815 5817 5820 5823 5826 5829 5830 5832 5834 5836 5837 5839 5840 5841
5715 5718 5719 5720 5722 5723 5725 5725 5726 5728 5727 5727 5728 5729 5730 5731 5733 5735 5738 5741 5744 5747 5750 5754 5758 5762 5767 5772 5777 5782 5786 5791 5795 5799 5803 5806 5810 5813 5816 5819 5821 5824 5826 5828 5830 5831 5833 5834 5835
5708 5709 5711 5712 5714 5715 5716 5717 5717 5718 5717 5718 5718 5718 5719 5720 5721 5723 5726 5728 5731 5734 5737 5740 5744 5749 5754 5760 5765 5771 5776 5780 5785 5789 5793 5797 5801 5804 5808 5811 5814 5816 5819 5821 5823 5824 5826 5827 5828
5701 5703 5704 5705 5706 5707 5709 5710 5709 5708 5708 5708 5708 5708 5708 5709 5709 5710 5712 5715 5717 5720 5723 5727 5730 5735 5740 5746 5752 5758 5764 5769 5774 5779 5783 5787 5791 5795 5799 5802 5805 5809 5811 5813 5815 5817 5819 5820 5822
5694 5696 5697 5698 5699 5700 5702 5703 5701 5700 5700 5699 5699 5698 5698 5697 5697 5698 5699 5701 5703 5706 5709 5713 5717 5721 5727 5733 5739 5744 5751 5757 5762 5768 5772 5777 5781 5785 5789 5793 5797 5800 5803 5805 5808 5810 5812 5814 5815
5688 5689 5690 5692 5692 5693 5694 5695 5694 5692 5692 5691 5689 5688 5687 5686 5686 5686 5687 5688 5690 5692 5696 5699 5703 5707 5712 5718 5724 5731 5737 5744 5750 5755 5761 5766 5770 5775 5779 5783 5787 5790 5794 5797 5799 5802 5804 5806 5807
5683 5684 5684 5685 5686 5687 5687 5687 5686 5685 5684 5683 5681 5679 5678 5676 5675 5675 5676 5677 5678 5680 5682 5685 5689 5693 5697 5703 5710 5716 5723 5730 5736 5742 5748 5754 5759 5764 5768 5773 5777 5781 5784 5788 5791 5793 5795 5797 5799
5677 5678 5679 5680 5680 5681 5681 5681 5680 5678 5677 5675 5673 5672 5669 5668 5667 5666 5666 5666 5667 5668 5669 5671 5674 5679 5683 5689 5696 5703 5710 5716 5723 5729 5735 5742 5747 5752 5757 5762 5766 5770 5774 5778 5782 5784 5786 5788 5790
5673 5674 5675 5675 5675 5676 5676 5676 5674 5673 5671 5669 5667 5665 5663 5661 5660 5658 5657 5656 5656 5656 5657 5659 5662 5666 5671 5677 5683 5690 5697 5703 5710 5717 5723 5729 5735 5741 5746 5751 5755 5760 5764 5768 5772 5775 5777 5779 5781
5669 5670 5671 5672 5672 5672 5672 5672 5670 5668 5666 5664 5662 5659 5657 5655 5652 5650 5649 5647 5646 5646 5647 5648 5650 5655 5659 5665 5671 5677 5684 5691 5698 5705 5711 5717 5723 5729 5734 5739 5744 5748 5753 5758 5762 5765 5767 5770 5772
5666 5667 5668 5668 5669 5668 5668 5667 5666 5663 5661 5659 5657 5654 5652 5648 5645 5643 5641 5639 5637 5637 5637 5639 5641 5644 5648 5653 5660 5666 5673 5680 5687 5693 5699 5705 5711 5717 5722 5727 5732 5737 5742 5746 5751 5754 5757 5759 5761
5664 5665 5666 5666 5665 5665 5664 5663 5662 5659 5657 5655 5652 5649 5646 5643 5640 5637 5634 5631 5630 5629 5629 5630 5632 5635 5639 5643 5649 5655 5662 5669 5676 5682 5688 5693 5698 5704 5710 5715 5720 5725 5730 5735 5739 5742 5746 5748 5751
5662 5663 5663 5663 5663 5663 5661 5659 5658 5655 5653 5650 5648 5645 5641 5638 5635 5631 5628 5625 5624 5623 5622 5623 5625 5627 5631 5635 5641 5646 5652 5658 5665 5671 5676 5682 5687 5692 5697 5702 5707 5712 5717 5722 5727 5730 5734 5737 5739
5661 5662 5662 5661 5661 5660 5658 5657 5656 5652 5649 5646 5644 5641 5637 5634 5631 5627 5624 5621 5619 5618 5617 5618 5619 5622 5625 5628 5633 5638 5644 5649 5655 5661 5667 5671 5676 5681 5685 5690 5695 5701 5705 5710 5715 5719 5722 5725 5727
5660 5660 5661 5660 5659 5658 5657 5655 5653 5650 5647 5644 5641 5638 5635 5632 5628 5625 5622 5618 5616 5614 5614 5614 5615 5617 5620 5623 5627 5631 5636 5642 5647 5653 5658 5662 5666 5671 5676 5680 5684 5689 5694 5698 5703 5707 5710 5713 5715
5659 5659 5659 5659 5658 5657 5655 5654 5651 5648 5645 5642 5639 5636 5633 5630 5627 5624 5620 5617 5614 5612 5612 5611 5612 5614 5616 5619 5622 5625 5630 5635 5641 5646 5650 5654 5659 5663 5666 5671 5675 5679 5683 5686 5691 5694 5697 5700 5702
5659 5658 5658 5658 5656 5655 5654 5652 5649 5646 5643 5641 5638 5636 5633 5630 5627 5624 5620 5617 5614 5612 5611 5610 5610 5612 5613 5615 5617 5621 5625 5630 5635 5639 5644 5648 5652 5655 5658 5662 5666 5670 5673 5676 5679 5682 5684 5687 5689
5659 5659 5657 5657 5656 5654 5653 5653 5648 5645 5643 5640 5638 5635 5633 5630 5627 5624 5621 5617 5615 5612 5611 5610 5610 5610 5611 5613 5615 5618 5623 5627 5631 5635 5638 5642 5645 5647 5651 5654 5657 5659 5662 5664 5666 5669 5672 5674 5676
5658 5658 5657 5657 5655 5654 5652 5654 5648 5645 5643 5641 5639 5636 5634 5631 5628 5625 5622 5618 5615 5613 5612 5611 5611 5611 5611 5613 5615 5618 5621 5624 5628 5630 5633 5636 5638 5640 5643 5645 5647 5649 5651 5653 5654 5657 5660 5661 5663